Location: Unspecified
(0.0000°N, 0.0000°E)
Time: 21:33:39
(UTC+00:00)

AO-7 - Pass Details

Date: 02 October 2021
Orbit: 1439 x 1459 km, 101.9° (Epoch: 24 October)

Event Time Altitude Azimuth Distance (km) Brightness Sun altitude
Rises 04:51:44 0° 351° (N) 4,519 ? -14.4°
Reaches altitude 10° 04:55:02 10° 340° (NNW) 3,542 ? -13.6°
Maximum altitude 05:01:34 27° 287° (WNW) 2,493 ? -11.9°
Drops below altitude 10° 05:08:08 10° 233° (SW) 3,551 ? -10.3°
Sets 05:11:30 0° 221° (SW) 4,532 ? -9.4°
